User: anonymous   Login
Location: Caltech
(34.1382°N, 118.1253°W)
Time: 15:35:25
(UTC-07:00)
Language:

Cosmos 2237 Rocket - Orbit

View from above orbital plane
View from above orbital plane
View from above satellite
View from above satellite

Ground track
Ground track

The orbit data is extracted from the following two-line orbital elements,

1 22566U 93016B   16268.03886606  .00000429  00000-0  24618-3 0  9999
2 22566  71.0055 265.5805 0010561 190.4181 169.6724 14.14934174213626
Epoch (UTC): 24 September 2016 00:55:58
Eccentricity: 0.0010561
inclination: 71.0055°
perigee height: 835 km
apogee height: 850 km
right ascension of ascending node: 265.5805°
argument of perigee: 190.4181°
revolutions per day: 14.14934174
mean anomaly at epoch: 169.6724°
orbit number at epoch: 21362

The dashed part of the orbit path shows where the satellite is in the earth's shadow,  

DLR